This demonstration page uses our WeatherBlox Daily Observations layout. Learn more.

Left ArrowRight Arrow

39.08367, -84.50855

Hourly Observations for April 16, 2018

Temp ( °F °C ) Dew Point ( °F °C ) Humidity (%) Winds ( mph kmh ) Pressure ( in mb ) Visibility ( mi km ) Precip ( " mm )
12:53 am 00:53 Cloudy 45 7.2 37 2.8 74 74 W 14 22 29.76 1008 10 16 N/A
1:53 am 01:53 Cloudy 44 6.7 35 1.7 71 71 W 10 17 29.77 1008 10 16 N/A
2:53 am 02:53 Cloudy 42 5.6 34 1.1 73 73 WNW 9 15 29.78 1009 10 16 N/A
3:22 am 03:22 Cloudy 42 5.6 34 1.1 73 73 WNW 9 15 29.80 1009 10 16 N/A
3:53 am 03:53 Cloudy 41 5 32 undefined 70 70 WNW 16 26 29.78 1009 10 16 N/A
4:53 am 04:53 Cloudy with Light Rain 39 3.9 34 1.1 82 82 W 15 24 29.79 1009 10 16 N/A
5:53 am 05:53 Cloudy 39 3.9 33 0.6 79 79 W 15 24 29.80 1009 10 16 N/A
6:53 am 06:53 Cloudy 38 3.3 34 1.1 86 86 WNW 9 15 29.80 1009 10 16 N/A
7:53 am 07:53 Cloudy 38 3.3 31 -0.6 76 76 WNW 10 17 29.82 1010 10 16 N/A
8:53 am 08:53 Cloudy 37 2.8 32 undefined 82 82 W 14 22 29.85 1011 10 16 N/A
9:53 am 09:53 Cloudy with Light Snow 38 3.3 31 -0.6 76 76 W 13 20 29.85 1011 7 11 N/A
10:53 am 10:53 Cloudy with Light Snow 38 3.3 32 undefined 79 79 WSW 12 19 29.85 1011 9 14 N/A
11:33 am 11:33 Cloudy with Light Snow 38 3.3 33 0.6 83 83 WSW 12 19 29.88 1012 4 6 N/A
11:48 am 11:48 Cloudy with Snow 36 2 32 undefined 87 87 WNW 16 26 29.91 1013 1 2 0.01 0.25
11:53 am 11:53 Cloudy with Light Snow 33 0.6 32 undefined 96 96 W 16 26 29.88 1012 1 2 0.01 0.25
12:07 pm 12:07 Cloudy with Light Snow 36 2.2 33 0.6 89 89 WSW 16 26 29.91 1013 4 6 N/A
12:29 pm 12:29 Cloudy with Light Snow 35 1.7 32 undefined 89 89 W 18 30 29.91 1013 2 3 0.01 0.25
12:36 pm 12:36 Cloudy with Light Snow 35 1.7 32 undefined 89 89 W 17 28 29.91 1013 2 3 0.01 0.25
12:46 pm 12:46 Cloudy 36 2.2 32 undefined 86 86 W 14 22 29.91 1013 9 14 0.01 0.25
12:53 pm 12:53 Cloudy with Light Snow 37 2.8 32 undefined 82 82 W 17 28 29.88 1012 7 11 0.01 0.25
1:01 pm 13:01 Windy with Snow Likely 36 2.2 31 -0.6 82 82 W 23 37 29.91 1013 2 3 N/A
1:53 pm 13:53 Cloudy with Light Snow 34 1.1 30 -1.1 85 85 WNW 15 24 29.89 1012 2 3 N/A
2:35 pm 14:35 Cloudy with Light Snow 35 1.7 31 -0.6 85 85 W 15 24 29.91 1013 8 13 N/A
2:53 pm 14:53 Windy with Snow Likely 36 2.2 30 -1.1 79 79 W 20 31 29.89 1012 8 13 N/A
3:53 pm 15:53 Cloudy with Light Snow 33 0.6 29 -1.7 85 85 WNW 16 26 29.91 1013 2 3 N/A
4:02 pm 16:02 Cloudy with Light Snow 33 0.6 30 -1.1 89 89 W 13 20 29.94 1014 4 6 0.01 0.25
4:26 pm 16:26 Cloudy with Light Snow 36 2.2 29 -1.7 76 76 W 18 30 29.94 1014 2 3 0.01 0.25
4:42 pm 16:42 Cloudy with Haze 36 2.2 31 -0.6 82 82 W 12 19 29.94 1014 5 8 0.01 0.25
4:53 pm 16:53 Cloudy with Light Snow 36 2.2 30 -1.1 79 79 W 13 20 29.91 1013 5 8 0.01 0.25
4:58 pm 16:58 Cloudy with Light Snow 36 2.2 29 -1.7 76 76 WNW 16 26 29.94 1014 2 3 N/A
5:16 pm 17:16 Cloudy 36 2.2 30 -1.1 79 79 W 16 26 29.94 1014 10 16 N/A
5:53 pm 17:53 Cloudy with Light Snow 36 2.2 29 -1.7 76 76 WSW 13 20 29.94 1014 7 11 N/A
6:53 pm 18:53 Cloudy 36 2.2 25 -3.9 64 64 WNW 16 26 29.97 1015 10 16 N/A
7:53 pm 19:53 Cloudy 35 1.7 25 -3.9 67 67 W 15 24 29.98 1015 10 16 N/A
8:53 pm 20:53 Cloudy 35 1.7 26 -3.3 70 70 W 13 20 30.00 1016 10 16 N/A
9:53 pm 21:53 Cloudy 35 1.7 26 -3.3 70 70 WSW 10 17 30.01 1016 10 16 N/A
10:53 pm 22:53 Cloudy 35 1.7 26 -3.3 70 70 WSW 12 19 30.01 1016 10 16 N/A
11:53 pm 23:53 Cloudy 34 1.1 26 -3.3 73 73 W 10 17 30.01 1016 10 16 N/A

Powered by AerisWeather